Weather History for Randolph AFB, TX

Change the Weather History Date:

Sunday, August 10, 2014

  Actual Average Record
Temperature  
Mean Temperature 86 °F -  
Max Temperature 99 °F 94 °F 104 °F (2012)
Min Temperature 73 °F 72 °F 71 °F (2000)
Cooling Degree Days 21    
Growing Degree Days 36 (Base 50)    
Moisture  
Dew Point 70 °F    
Average Humidity 65    
Maximum Humidity 100    
Minimum Humidity 28    
Precipitation  
Precipitation 0.00 in - - ()
Sea Level Pressure  
Sea Level Pressure 30.00 in    
Wind  
Wind Speed 7 mph (South)    
Max Wind Speed 15 mph    
Max Gust Speed -    
Visibility 10 miles    
Events      
Averages and records for this station are not official NWS values.
T = Trace of Precipitation, MM = Missing Value Source: NWS Daily Summary

Daily Weather History Graph

Daily Weather History Graph

Search for Another Location

Airport:

Trip Planner

Search our weather history database for the weather conditions in past years. The results will help you decide how hot, cold, wet, or windy it might be!

Date:

Astronomy

Aug. 10, 2014 Rise Set
Actual Time 6:58 AM CDT 8:18 PM CDT
Civil Twilight 6:33 AM CDT 8:43 PM CDT
Nautical Twilight 6:02 AM CDT 9:13 PM CDT
Astronomical Twilight 5:31 AM CDT 9:44 PM CDT
Moon 8:12 PM CDT (8/10) 6:48 AM CDT (8/10)
Length of Visible Light 14h 10m
Length of Day
13h 19m
Full, 100% of the Moon is Illuminated
Aug 10
Full
Aug 10
Full
Aug 17
Last Quarter
Aug 25
New
Sep 2
First Quarter

Hourly Weather History & Observations

Time (CDT) Temp. Heat Index Dew Point Humidity Pressure Visibility Wind Dir Wind Speed Gust Speed Precip Events Conditions
12:58 AM 82.0 °F 86.3 °F 71.1 °F 69% 30.00 in 10.0 mi South 10.4 mph - N/A   Clear
1:58 AM 80.2 °F 83.9 °F 71.2 °F 74% 30.00 in 10.0 mi South 9.2 mph - N/A   Partly Cloudy
2:58 AM 78.8 °F - 72.1 °F 80% 29.99 in 10.0 mi South 4.6 mph - N/A   Clear
3:58 AM 77.7 °F - 73.4 °F 86% 29.97 in 10.0 mi South 6.9 mph - N/A   Clear
4:58 AM 77.0 °F - 73.2 °F 88% 29.97 in 10.0 mi SSW 4.6 mph - N/A   Clear
5:58 AM 74.7 °F - 72.1 °F 92% 29.97 in 10.0 mi SSE 2.3 mph - N/A   Clear
6:08 AM 75.2 °F - 73.4 °F 94% 30.00 in 10.0 mi SSE 3.5 mph - N/A   Clear
6:18 AM 73.4 °F - 71.6 °F 94% 30.01 in 6.0 mi South 2.3 mph - N/A   Clear
6:28 AM 73.4 °F - 73.4 °F 100% 30.01 in 8.0 mi SSW 4.6 mph - N/A   Clear
6:33 AM 75.2 °F - 73.4 °F 94% 30.01 in 10.0 mi SSW 3.5 mph - N/A   Clear
6:58 AM 76.1 °F - 73.4 °F 91% 29.99 in 10.0 mi SSW 2.3 mph - N/A   Clear
7:58 AM 77.4 °F - 73.4 °F 88% 30.01 in 10.0 mi SW 3.5 mph - N/A   Clear
8:58 AM 81.0 °F 85.8 °F 73.2 °F 77% 30.02 in 10.0 mi SSW 5.8 mph - N/A   Mostly Cloudy
9:13 AM 82.4 °F 88.2 °F 73.4 °F 74% 30.06 in 10.0 mi SW 8.1 mph - N/A   Mostly Cloudy
9:18 AM 82.4 °F 88.2 °F 73.4 °F 74% 30.06 in 10.0 mi SW 6.9 mph - N/A   Scattered Clouds
9:58 AM 84.7 °F 90.4 °F 71.6 °F 65% 30.04 in 10.0 mi SSW 8.1 mph - N/A   Mostly Cloudy
10:48 AM 84.2 °F 88.4 °F 69.8 °F 62% 30.06 in 10.0 mi Variable 5.8 mph - N/A   Mostly Cloudy
10:53 AM 86.0 °F 90.4 °F 69.8 °F 58% 30.06 in 10.0 mi Variable 4.6 mph - N/A   Scattered Clouds
10:58 AM 85.8 °F 90.4 °F 70.0 °F 59% 30.04 in 10.0 mi SW 6.9 mph - N/A   Partly Cloudy
11:58 AM 89.2 °F 93.6 °F 68.9 °F 51% 30.04 in 10.0 mi Variable 4.6 mph - N/A   Partly Cloudy
12:58 PM 92.7 °F 95.8 °F 66.6 °F 42% 30.02 in 10.0 mi Variable 3.5 mph - N/A   Partly Cloudy
1:58 PM 95.7 °F 97.2 °F 62.8 °F 34% 30.00 in 10.0 mi Variable 6.9 mph - N/A   Scattered Clouds
2:58 PM 96.4 °F 97.9 °F 62.6 °F 33% 29.99 in 10.0 mi Variable 3.5 mph - N/A   Partly Cloudy
3:58 PM 98.1 °F 98.6 °F 61.2 °F 29% 29.96 in 10.0 mi Variable 6.9 mph - N/A   Partly Cloudy
4:58 PM 98.8 °F 99.2 °F 60.6 °F 28% 29.94 in 10.0 mi ENE 4.6 mph - N/A   Scattered Clouds
5:58 PM 99.5 °F 100.9 °F 61.5 °F 29% 29.90 in 10.0 mi Variable 6.9 mph - N/A   Partly Cloudy
6:58 PM 98.4 °F 99.2 °F 61.5 °F 29% 29.89 in 10.0 mi ESE 8.1 mph - N/A   Clear
7:58 PM 91.4 °F 96.3 °F 69.3 °F 48% 29.91 in 10.0 mi SE 15.0 mph - N/A   Clear
8:58 PM 87.8 °F 92.6 °F 69.6 °F 55% 29.94 in 10.0 mi SE 9.2 mph - N/A   Clear
9:58 PM 86.2 °F 90.7 °F 69.8 °F 58% 29.99 in 10.0 mi SE 6.9 mph - N/A   Clear
10:58 PM 84.2 °F 88.7 °F 70.2 °F 63% 30.01 in 10.0 mi SE 6.9 mph - N/A   Clear
11:58 PM 83.7 °F 87.5 °F 69.6 °F 62% 30.01 in 10.0 mi SSE 8.1 mph - N/A   Mostly Cloudy